EW6685 Weather Reports


Display with metric or nautical units.
time (UTC)temp
F
wind
direction
speed
MPH
gust
MPH
rain 1hr
in
rain 24hr
in
rain mn
in
humidity
%
barometer
mb
20260510184502 63 360 5.0 10.0 0.00 0.00 0.00 28 1008.6
20260510183000 64 360 6.0 18.0 0.00 0.00 0.00 27 1008.7
20260510104603 54 360 7.0 12.0 0.00 0.00 0.00 31 1006.2
20260510103047 54 360 4.0 13.0 0.00 0.00 0.00 30 1005.8
20260510101544 54 37 8.0 15.0 0.00 0.00 0.00 29 1005.6
20260510100041 55 30 7.0 13.0 0.00 0.00 0.00 27 1005.8
20260510093036 56 58 1.0 4.0 0.00 0.00 0.00 27 1005.3
20260510091548 56 55 1.0 4.0 0.00 0.00 0.00 27 1004.8
20260510090026 58 27 3.0 5.0 0.00 0.00 0.00 26 1004.3
20260510084526 58 297 1.0 5.0 0.00 0.00 0.00 26 1004.2
20260510083021 58 298 2.0 9.0 0.00 0.00 0.00 26 1004.0
20260510081532 58 182 1.0 6.0 0.00 0.00 0.00 25 1003.9
20260510080018 59 217 2.0 9.0 0.00 0.00 0.00 25 1003.9
20260510061515 60 182 0.0 4.0 0.00 0.00 0.00 23 1003.8
20260510060023 61 218 0.0 6.0 0.00 0.00 0.00 22 1003.8
20260510054506 61 178 1.0 9.0 0.00 0.00 0.00 22 1003.7
20260510053008 61 321 5.0 12.0 0.00 0.00 0.00 21 1003.6
20260510051506 61 316 1.0 8.0 0.00 0.00 0.00 21 1003.6
20260510050006 62 360 1.0 8.0 0.00 0.00 0.00 21 1003.6
20260510044508 62 301 3.0 11.0 0.00 0.00 0.00 20 1003.8
20260510043004 62 329 4.0 12.0 0.00 0.00 0.00 19 1003.8
20260510041504 63 211 2.0 9.0 0.00 0.00 0.00 18 1003.7
20260510040003 63 274 5.0 10.0 0.00 0.00 0.00 18 1003.6
20260510034528 63 9 2.0 8.0 0.00 0.00 0.00 16 1003.6
20260510033002 64 212 4.0 11.0 0.00 0.00 0.00 15 1003.4
20260510031502 65 360 5.0 14.0 0.00 0.00 0.00 14 1003.0
20260510030001 65 196 4.0 12.0 0.00 0.00 0.00 15 1002.8
20260510024600 65 261 6.0 16.0 0.00 0.00 0.00 15 1002.5
20260510023100 65 214 7.0 15.0 0.00 0.00 0.00 15 1002.2
20260510021558 65 205 7.0 14.0 0.00 0.00 0.00 15 1002.1
20260510020059 66 215 10.0 20.0 0.00 0.00 0.00 14 1001.9
20260510014600 67 360 13.0 27.0 0.00 0.00 0.00 13 1001.5
20260510013103 69 184 8.0 18.0 0.00 0.00 0.00 13 1001.5
20260510011557 68 203 13.0 20.0 0.00 0.00 0.00 13 1001.3
20260510010056 68 182 13.0 21.0 0.00 0.00 0.00 13 1001.3
20260510004556 68 213 10.0 21.0 0.00 0.00 0.00 13 1001.3
20260510003100 69 192 14.0 21.0 0.00 0.00 0.00 13 1001.0
20260509223039 71 360 9.0 22.0 0.00 0.00 0.00 13 1001.2
20260509221540 70 360 15.0 23.0 0.00 0.00 0.00 13 1001.3
20260509220038 70 360 11.0 25.0 0.00 0.00 0.00 13 1001.6
20260509214537 73 360 17.0 28.0 0.00 0.00 0.00 12 1001.5
20260509213033 72 360 18.0 27.0 0.00 0.00 0.00 13 1001.4
20260509211532 69 204 12.0 22.0 0.00 0.00 0.00 14 1001.9
20260509210031 70 360 10.0 28.0 0.00 0.00 0.00 13 1002.1
20260509204533 71 210 16.0 24.0 0.00 0.00 0.00 13 1002.3